sat.trackr.live / text

‹ back to catalog

STARLINK-36129

NORAD 66874 · 2025-281AC

PAYLOAD ACTIVE UNKNOWN

§ Identity

Operator
Country
US
Launch date
2025-12-02
Launch site
AFETR
Launch vehicle
Mass (kg)
RCS (m²)

Purposes: comms

External: N2YO · Heavens-Above · Gunter

§ Orbital elements

Epoch: 2026-09-20T11:08:56.133312Z

Period
94.27 min
Inclination
43.0007°
Eccentricity
0.0000623
Mean motion
15.27586251 rev/d
Perigee alt
482.6 km
Apogee alt
483.5 km
Semi-major
6,861.2 km
B*
3.8289e-4
RAAN
323.4989°
Arg perigee
269.8484°
Mean anomaly
90.2296°
Rev number
4,596

§ Raw data

STARLINK-361291 66874U 25281AC  26263.46453858  .00010291  00000+0  38289-3 0  99962 66874  43.0007 323.4989 0000623 269.8484  90.2296 15.27586251 45961

JSON: /api/v1/satellites/66874 · /tle

For live sub-satellite position, see the globe view (requires WebGL).

§ Visibility from observer

Set your observer location to see the next 7 days of passes ≥ 10°. The values pass through the URL so the page stays shareable.

No JS? Fill the form by hand. The geolocation button needs JavaScript.